JACK E (66654 NORAD) Tracking and Keplerian Element Data

This shows tracking and keplerian element data for the satellite.

Feedback or suggestion? Click here.




ElementValue
Catalog66654
NameJACK E
Epoch Orbit349
Epoch Day354.05782906
Epoch Year2025
RAAN281.1258
Inclination97.7403
Eccentricity0.0012081
Argument of Perigee228.2907
Mean Anonmoly131.7279
Mean Motion14.92118447
Decay Rate1.429E-05
L11 66654U 25274E 25354.05782906 .00001429 00000+0 14596-3 0 9996
L22 66654 97.7403 281.1258 0012081 228.2907 131.7279 14.92118447 3495



Live tracking and technical data element details for JACK E (NORAD 66654). JACK E can be tracked NOW for your location showing map with azimuth and elevation plus other details from your city location.







IsCatalogInMostPopularTable: catalog: 66654, numindb: 12
Update: records affected: 1



GetName: 66654 JACK E

Hit Count: updated at: Sat, 11 Apr 2026 21:17:58 GMT